owner,sensor,date,latitude,longitude,vertical_datum,wind_speed,wind_to_direction,wind_speed_of_gust,qcFlag 
WAVCIS,ioos:station:WAVCIS:CSI15:1,2012-06-01T00:00:00Z,28.8332,-90.8320,10.0,7.3,215.0,,'11111222,11111222,99999999' 
WAVCIS,ioos:station:WAVCIS:CSI15:1,2012-06-01T01:00:00Z,28.8332,-90.8320,10.0,5.113,315.0,,'11111222,11111222,99999999' 
WAVCIS,ioos:station:WAVCIS:CSI15:1,2012-06-01T02:00:00Z,28.8332,-90.8320,10.0,2.516,87.0,,'11111222,11111222,99999999' 
WAVCIS,ioos:station:WAVCIS:CSI15:1,2012-06-01T03:00:00Z,28.8332,-90.8320,10.0,1.867,159.0,,'11111222,11111222,99999999' 
WAVCIS,ioos:station:WAVCIS:CSI15:1,2012-06-01T04:00:00Z,28.8332,-90.8320,10.0,5.878,176.0,,'11111222,11111222,99999999' 
WAVCIS,ioos:station:WAVCIS:CSI15:1,2012-06-01T05:00:00Z,28.8332,-90.8320,10.0,4.942,200.0,,'11111222,11111222,99999999' 
WAVCIS,ioos:station:WAVCIS:CSI15:1,2012-06-01T06:00:00Z,28.8332,-90.8320,10.0,13.07,281.0,,'11111222,11111222,99999999' 
WAVCIS,ioos:station:WAVCIS:CSI15:1,2012-06-01T07:00:00Z,28.8332,-90.8320,10.0,4.539,222.0,,'11111222,11111222,99999999' 
WAVCIS,ioos:station:WAVCIS:CSI15:1,2012-06-01T08:00:00Z,28.8332,-90.8320,10.0,3.859,150.0,,'11111222,11111222,99999999' 
WAVCIS,ioos:station:WAVCIS:CSI15:1,2012-06-01T09:00:00Z,28.8332,-90.8320,10.0,5.994,218.0,,'11111222,11111222,99999999' 
WAVCIS,ioos:station:WAVCIS:CSI15:1,2012-06-01T10:00:00Z,28.8332,-90.8320,10.0,11.59,250.0,,'11111222,11111222,99999999' 
WAVCIS,ioos:station:WAVCIS:CSI15:1,2012-06-01T11:00:00Z,28.8332,-90.8320,10.0,9.67,255.0,,'11111222,11111222,99999999' 
WAVCIS,ioos:station:WAVCIS:CSI15:1,2012-06-01T12:00:00Z,28.8332,-90.8320,10.0,8.95,232.0,,'11111222,11111222,99999999' 
WAVCIS,ioos:station:WAVCIS:CSI15:1,2012-06-01T13:00:00Z,28.8332,-90.8320,10.0,5.538,265.0,,'11111222,11111222,99999999' 
WAVCIS,ioos:station:WAVCIS:CSI15:1,2012-06-01T14:00:00Z,28.8332,-90.8320,10.0,5.999,274.0,,'11111222,11111222,99999999' 
WAVCIS,ioos:station:WAVCIS:CSI15:1,2012-06-01T15:00:00Z,28.8332,-90.8320,10.0,6.068,286.0,,'11111222,11111222,99999999' 
WAVCIS,ioos:station:WAVCIS:CSI15:1,2012-06-01T16:00:00Z,28.8332,-90.8320,10.0,7.78,305.0,,'11111222,11111222,99999999' 
WAVCIS,ioos:station:WAVCIS:CSI15:1,2012-06-01T17:00:00Z,28.8332,-90.8320,10.0,6.037,301.0,,'11111222,11111222,99999999' 
WAVCIS,ioos:station:WAVCIS:CSI15:1,2012-06-01T18:00:00Z,28.8332,-90.8320,10.0,6.682,294.0,,'11111222,11111222,99999999' 
WAVCIS,ioos:station:WAVCIS:CSI15:1,2012-06-01T19:00:00Z,28.8332,-90.8320,10.0,6.964,287.0,,'11111222,11111222,99999999' 
WAVCIS,ioos:station:WAVCIS:CSI15:1,2012-06-01T20:00:00Z,28.8332,-90.8320,10.0,6.336,278.0,,'11111222,11111222,99999999' 
WAVCIS,ioos:station:WAVCIS:CSI15:1,2012-06-01T21:00:00Z,28.8332,-90.8320,10.0,6.804,274.0,,'11111222,11111222,99999999' 
WAVCIS,ioos:station:WAVCIS:CSI15:1,2012-06-01T22:00:00Z,28.8332,-90.8320,10.0,8.16,269.0,,'11111222,11111222,99999999' 
WAVCIS,ioos:station:WAVCIS:CSI15:1,2012-06-01T23:00:00Z,28.8332,-90.8320,10.0,8.22,278.0,,'11111222,11111222,99999999' 
WAVCIS,ioos:station:WAVCIS:CSI15:1,2012-06-02T00:00:00Z,28.8332,-90.8320,10.0,8.27,281.0,,'11111222,11111222,99999999' 
WAVCIS,ioos:station:WAVCIS:CSI15:1,2012-06-02T01:00:00Z,28.8332,-90.8320,10.0,7.53,314.0,,'11111222,11111222,99999999' 
WAVCIS,ioos:station:WAVCIS:CSI15:1,2012-06-02T02:00:00Z,28.8332,-90.8320,10.0,8.25,327.0,,'11111222,11111222,99999999' 
WAVCIS,ioos:station:WAVCIS:CSI15:1,2012-06-02T03:00:00Z,28.8332,-90.8320,10.0,8.93,338.0,,'11111222,11111222,99999999' 
WAVCIS,ioos:station:WAVCIS:CSI15:1,2012-06-02T04:00:00Z,28.8332,-90.8320,10.0,9.12,344.0,,'11111222,11111222,99999999' 
WAVCIS,ioos:station:WAVCIS:CSI15:1,2012-06-02T05:00:00Z,28.8332,-90.8320,10.0,6.534,348.0,,'11111222,11111222,99999999' 
WAVCIS,ioos:station:WAVCIS:CSI15:1,2012-06-02T06:00:00Z,28.8332,-90.8320,10.0,6.518,3.0,,'11111222,11111222,99999999' 
WAVCIS,ioos:station:WAVCIS:CSI15:1,2012-06-02T07:00:00Z,28.8332,-90.8320,10.0,6.906,8.0,,'11111222,11111222,99999999' 
WAVCIS,ioos:station:WAVCIS:CSI15:1,2012-06-02T08:00:00Z,28.8332,-90.8320,10.0,7.07,21.0,,'11111222,11111222,99999999' 
WAVCIS,ioos:station:WAVCIS:CSI15:1,2012-06-02T09:00:00Z,28.8332,-90.8320,10.0,6.548,24.0,,'11111222,11111222,99999999' 
WAVCIS,ioos:station:WAVCIS:CSI15:1,2012-06-02T10:00:00Z,28.8332,-90.8320,10.0,6.002,24.0,,'11111222,11111222,99999999' 
WAVCIS,ioos:station:WAVCIS:CSI15:1,2012-06-02T11:00:00Z,28.8332,-90.8320,10.0,6.295,29.0,,'11111222,11111222,99999999' 
WAVCIS,ioos:station:WAVCIS:CSI15:1,2012-06-02T12:00:00Z,28.8332,-90.8320,10.0,5.294,47.0,,'11111222,11111222,99999999' 
WAVCIS,ioos:station:WAVCIS:CSI15:1,2012-06-02T13:00:00Z,28.8332,-90.8320,10.0,5.034,32.0,,'11111222,11111222,99999999' 
WAVCIS,ioos:station:WAVCIS:CSI15:1,2012-06-02T14:00:00Z,28.8332,-90.8320,10.0,5.303,33.0,,'11111222,11111222,99999999' 
WAVCIS,ioos:station:WAVCIS:CSI15:1,2012-06-02T15:00:00Z,28.8332,-90.8320,10.0,4.781,46.0,,'11111222,11111222,99999999' 
WAVCIS,ioos:station:WAVCIS:CSI15:1,2012-06-02T16:00:00Z,28.8332,-90.8320,10.0,4.831,40.0,,'11111222,11111222,99999999' 
WAVCIS,ioos:station:WAVCIS:CSI15:1,2012-06-02T17:00:00Z,28.8332,-90.8320,10.0,4.377,61.0,,'11111222,11111222,99999999' 
WAVCIS,ioos:station:WAVCIS:CSI15:1,2012-06-02T18:00:00Z,28.8332,-90.8320,10.0,3.876,60.0,,'11111222,11111222,99999999' 
WAVCIS,ioos:station:WAVCIS:CSI15:1,2012-06-02T19:00:00Z,28.8332,-90.8320,10.0,3.882,57.0,,'11111222,11111222,99999999' 
WAVCIS,ioos:station:WAVCIS:CSI15:1,2012-06-02T20:00:00Z,28.8332,-90.8320,10.0,3.859,89.0,,'11111222,11111222,99999999' 
WAVCIS,ioos:station:WAVCIS:CSI15:1,2012-06-02T21:00:00Z,28.8332,-90.8320,10.0,3.307,78.0,,'11111222,11111222,99999999' 
WAVCIS,ioos:station:WAVCIS:CSI15:1,2012-06-02T22:00:00Z,28.8332,-90.8320,10.0,4.296,111.0,,'11111222,11111222,99999999' 
WAVCIS,ioos:station:WAVCIS:CSI15:1,2012-06-02T23:00:00Z,28.8332,-90.8320,10.0,4.664,103.0,,'11111222,11111222,99999999' 
WAVCIS,ioos:station:WAVCIS:CSI15:1,2012-06-03T00:00:00Z,28.8332,-90.8320,10.0,4.856,111.0,,'11111222,11111222,99999999' 
WAVCIS,ioos:station:WAVCIS:CSI15:1,2012-06-03T01:00:00Z,28.8332,-90.8320,10.0,5.277,131.0,,'11111222,11111222,99999999' 
WAVCIS,ioos:station:WAVCIS:CSI15:1,2012-06-03T02:00:00Z,28.8332,-90.8320,10.0,4.934,128.0,,'11111222,11111222,99999999' 
WAVCIS,ioos:station:WAVCIS:CSI15:1,2012-06-03T03:00:00Z,28.8332,-90.8320,10.0,5.566,119.0,,'11111222,11111222,99999999' 
WAVCIS,ioos:station:WAVCIS:CSI15:1,2012-06-03T04:00:00Z,28.8332,-90.8320,10.0,5.39,136.0,,'11111222,11111222,99999999' 
WAVCIS,ioos:station:WAVCIS:CSI15:1,2012-06-03T05:00:00Z,28.8332,-90.8320,10.0,5.899,142.0,,'11111222,11111222,99999999' 
WAVCIS,ioos:station:WAVCIS:CSI15:1,2012-06-03T06:00:00Z,28.8332,-90.8320,10.0,6.159,139.0,,'11111222,11111222,99999999' 
WAVCIS,ioos:station:WAVCIS:CSI15:1,2012-06-03T07:00:00Z,28.8332,-90.8320,10.0,6.585,154.0,,'11111222,11111222,99999999' 
WAVCIS,ioos:station:WAVCIS:CSI15:1,2012-06-03T08:00:00Z,28.8332,-90.8320,10.0,6.752,154.0,,'11111222,11111222,99999999' 
WAVCIS,ioos:station:WAVCIS:CSI15:1,2012-06-03T09:00:00Z,28.8332,-90.8320,10.0,6.29,148.0,,'11111222,11111222,99999999' 
WAVCIS,ioos:station:WAVCIS:CSI15:1,2012-06-03T10:00:00Z,28.8332,-90.8320,10.0,5.787,167.0,,'11111222,11111222,99999999' 
WAVCIS,ioos:station:WAVCIS:CSI15:1,2012-06-03T11:00:00Z,28.8332,-90.8320,10.0,5.011,157.0,,'11111222,11111222,99999999' 
WAVCIS,ioos:station:WAVCIS:CSI15:1,2012-06-03T12:00:00Z,28.8332,-90.8320,10.0,5.223,172.0,,'11111222,11111222,99999999' 
WAVCIS,ioos:station:WAVCIS:CSI15:1,2012-06-03T13:00:00Z,28.8332,-90.8320,10.0,5.036,182.0,,'11111222,11111222,99999999' 
WAVCIS,ioos:station:WAVCIS:CSI15:1,2012-06-03T14:00:00Z,28.8332,-90.8320,10.0,5.492,185.0,,'11111222,11111222,99999999' 
WAVCIS,ioos:station:WAVCIS:CSI15:1,2012-06-03T15:00:00Z,28.8332,-90.8320,10.0,5.057,186.0,,'11111222,11111222,99999999' 
WAVCIS,ioos:station:WAVCIS:CSI15:1,2012-06-03T16:00:00Z,28.8332,-90.8320,10.0,4.629,193.0,,'11111222,11111222,99999999' 
WAVCIS,ioos:station:WAVCIS:CSI15:1,2012-06-03T17:00:00Z,28.8332,-90.8320,10.0,4.003,188.0,,'11111222,11111222,99999999' 
WAVCIS,ioos:station:WAVCIS:CSI15:1,2012-06-03T18:00:00Z,28.8332,-90.8320,10.0,4.021,193.0,,'11111222,11111222,99999999' 
WAVCIS,ioos:station:WAVCIS:CSI15:1,2012-06-03T19:00:00Z,28.8332,-90.8320,10.0,2.211,194.0,,'11111222,11111222,99999999' 
WAVCIS,ioos:station:WAVCIS:CSI15:1,2012-06-03T20:00:00Z,28.8332,-90.8320,10.0,2.352,175.0,,'11111222,11111222,99999999' 
WAVCIS,ioos:station:WAVCIS:CSI15:1,2012-06-03T21:00:00Z,28.8332,-90.8320,10.0,2.669,178.0,,'11111222,11111222,99999999' 
WAVCIS,ioos:station:WAVCIS:CSI15:1,2012-06-03T22:00:00Z,28.8332,-90.8320,10.0,1.232,194.0,,'11111222,11111222,99999999' 
WAVCIS,ioos:station:WAVCIS:CSI15:1,2012-06-03T23:00:00Z,28.8332,-90.8320,10.0,3.13,167.0,,'11111222,11111222,99999999' 
WAVCIS,ioos:station:WAVCIS:CSI15:1,2012-06-04T00:00:00Z,28.8332,-90.8320,10.0,3.851,156.0,,'11111222,11111222,99999999' 
WAVCIS,ioos:station:WAVCIS:CSI15:1,2012-06-04T01:00:00Z,28.8332,-90.8320,10.0,4.664,166.0,,'11111222,11111222,99999999' 
WAVCIS,ioos:station:WAVCIS:CSI15:1,2012-06-04T02:00:00Z,28.8332,-90.8320,10.0,4.038,166.0,,'11111222,11111222,99999999' 
WAVCIS,ioos:station:WAVCIS:CSI15:1,2012-06-04T03:00:00Z,28.8332,-90.8320,10.0,3.157,147.0,,'11111222,11111222,99999999' 
WAVCIS,ioos:station:WAVCIS:CSI15:1,2012-06-04T04:00:00Z,28.8332,-90.8320,10.0,4.824,155.0,,'11111222,11111222,99999999' 
WAVCIS,ioos:station:WAVCIS:CSI15:1,2012-06-04T05:00:00Z,28.8332,-90.8320,10.0,6.541,150.0,,'11111222,11111222,99999999' 
WAVCIS,ioos:station:WAVCIS:CSI15:1,2012-06-04T06:00:00Z,28.8332,-90.8320,10.0,6.178,149.0,,'11111222,11111222,99999999' 
WAVCIS,ioos:station:WAVCIS:CSI15:1,2012-06-04T07:00:00Z,28.8332,-90.8320,10.0,6.726,162.0,,'11111222,11111222,99999999' 
WAVCIS,ioos:station:WAVCIS:CSI15:1,2012-06-04T08:00:00Z,28.8332,-90.8320,10.0,7.74,165.0,,'11111222,11111222,99999999' 
WAVCIS,ioos:station:WAVCIS:CSI15:1,2012-06-04T09:00:00Z,28.8332,-90.8320,10.0,7.63,177.0,,'11111222,11111222,99999999' 
WAVCIS,ioos:station:WAVCIS:CSI15:1,2012-06-04T10:00:00Z,28.8332,-90.8320,10.0,6.199,188.0,,'11111222,11111222,99999999' 
WAVCIS,ioos:station:WAVCIS:CSI15:1,2012-06-04T11:00:00Z,28.8332,-90.8320,10.0,6.542,191.0,,'11111222,11111222,99999999' 
WAVCIS,ioos:station:WAVCIS:CSI15:1,2012-06-04T12:00:00Z,28.8332,-90.8320,10.0,5.891,191.0,,'11111222,11111222,99999999' 
WAVCIS,ioos:station:WAVCIS:CSI15:1,2012-06-04T13:00:00Z,28.8332,-90.8320,10.0,5.914,199.0,,'11111222,11111222,99999999' 
WAVCIS,ioos:station:WAVCIS:CSI15:1,2012-06-04T14:00:00Z,28.8332,-90.8320,10.0,5.928,209.0,,'11111222,11111222,99999999' 
WAVCIS,ioos:station:WAVCIS:CSI15:1,2012-06-04T15:00:00Z,28.8332,-90.8320,10.0,4.279,227.0,,'11111222,11111222,99999999' 
WAVCIS,ioos:station:WAVCIS:CSI15:1,2012-06-04T16:00:00Z,28.8332,-90.8320,10.0,3.067,230.0,,'11111222,11111222,99999999' 
WAVCIS,ioos:station:WAVCIS:CSI15:1,2012-06-04T17:00:00Z,28.8332,-90.8320,10.0,2.056,255.0,,'11111222,11111222,99999999' 
WAVCIS,ioos:station:WAVCIS:CSI15:1,2012-06-04T18:00:00Z,28.8332,-90.8320,10.0,1.549,209.0,,'11111222,11111222,99999999' 
WAVCIS,ioos:station:WAVCIS:CSI15:1,2012-06-04T19:00:00Z,28.8332,-90.8320,10.0,0.879,184.0,,'11111222,11111222,99999999' 
WAVCIS,ioos:station:WAVCIS:CSI15:1,2012-06-04T20:00:00Z,28.8332,-90.8320,10.0,1.741,155.0,,'11111222,11111222,99999999' 
WAVCIS,ioos:station:WAVCIS:CSI15:1,2012-06-04T21:00:00Z,28.8332,-90.8320,10.0,3.097,188.0,,'11111222,11111222,99999999' 
WAVCIS,ioos:station:WAVCIS:CSI15:1,2012-06-04T22:00:00Z,28.8332,-90.8320,10.0,3.142,181.0,,'11111222,11111222,99999999' 
WAVCIS,ioos:station:WAVCIS:CSI15:1,2012-06-04T23:00:00Z,28.8332,-90.8320,10.0,2.591,172.0,,'11111222,11111222,99999999' 
WAVCIS,ioos:station:WAVCIS:CSI15:1,2012-06-05T00:00:00Z,28.8332,-90.8320,10.0,4.074,161.0,,'11111222,11111222,99999999' 
WAVCIS,ioos:station:WAVCIS:CSI15:1,2012-06-05T01:00:00Z,28.8332,-90.8320,10.0,4.003,167.0,,'11111222,11111222,99999999' 
WAVCIS,ioos:station:WAVCIS:CSI15:1,2012-06-05T02:00:00Z,28.8332,-90.8320,10.0,3.144,206.0,,'11111222,11111222,99999999' 
WAVCIS,ioos:station:WAVCIS:CSI15:1,2012-06-05T03:00:00Z,28.8332,-90.8320,10.0,3.439,204.0,,'11111222,11111222,99999999' 
WAVCIS,ioos:station:WAVCIS:CSI15:1,2012-06-05T04:00:00Z,28.8332,-90.8320,10.0,5.037,185.0,,'11111222,11111222,99999999' 
WAVCIS,ioos:station:WAVCIS:CSI15:1,2012-06-05T05:00:00Z,28.8332,-90.8320,10.0,5.707,170.0,,'11111222,11111222,99999999' 
WAVCIS,ioos:station:WAVCIS:CSI15:1,2012-06-05T06:00:00Z,28.8332,-90.8320,10.0,6.624,175.0,,'11111222,11111222,99999999' 
WAVCIS,ioos:station:WAVCIS:CSI15:1,2012-06-05T07:00:00Z,28.8332,-90.8320,10.0,8.18,178.0,,'11111222,11111222,99999999' 
WAVCIS,ioos:station:WAVCIS:CSI15:1,2012-06-05T08:00:00Z,28.8332,-90.8320,10.0,7.98,189.0,,'11111222,11111222,99999999' 
WAVCIS,ioos:station:WAVCIS:CSI15:1,2012-06-05T09:00:00Z,28.8332,-90.8320,10.0,6.527,208.0,,'11111222,11111222,99999999' 
WAVCIS,ioos:station:WAVCIS:CSI15:1,2012-06-05T10:00:00Z,28.8332,-90.8320,10.0,6.32,218.0,,'11111222,11111222,99999999' 
WAVCIS,ioos:station:WAVCIS:CSI15:1,2012-06-05T11:00:00Z,28.8332,-90.8320,10.0,6.453,226.0,,'11111222,11111222,99999999' 
WAVCIS,ioos:station:WAVCIS:CSI15:1,2012-06-05T12:00:00Z,28.8332,-90.8320,10.0,6.62,237.0,,'11111222,11111222,99999999' 
WAVCIS,ioos:station:WAVCIS:CSI15:1,2012-06-05T13:00:00Z,28.8332,-90.8320,10.0,5.615,240.0,,'11111222,11111222,99999999' 
WAVCIS,ioos:station:WAVCIS:CSI15:1,2012-06-05T14:00:00Z,28.8332,-90.8320,10.0,4.594,241.0,,'11111222,11111222,99999999' 
WAVCIS,ioos:station:WAVCIS:CSI15:1,2012-06-05T15:00:00Z,28.8332,-90.8320,10.0,4.888,237.0,,'11111222,11111222,99999999' 
WAVCIS,ioos:station:WAVCIS:CSI15:1,2012-06-05T16:00:00Z,28.8332,-90.8320,10.0,3.755,223.0,,'11111222,11111222,99999999' 
WAVCIS,ioos:station:WAVCIS:CSI15:1,2012-06-05T17:00:00Z,28.8332,-90.8320,10.0,3.072,235.0,,'11111222,11111222,99999999' 
WAVCIS,ioos:station:WAVCIS:CSI15:1,2012-06-05T18:00:00Z,28.8332,-90.8320,10.0,2.653,218.0,,'11111222,11111222,99999999' 
WAVCIS,ioos:station:WAVCIS:CSI15:1,2012-06-05T19:00:00Z,28.8332,-90.8320,10.0,3.461,180.0,,'11111222,11111222,99999999' 
WAVCIS,ioos:station:WAVCIS:CSI15:1,2012-06-05T20:00:00Z,28.8332,-90.8320,10.0,5.018,170.0,,'11111222,11111222,99999999' 
WAVCIS,ioos:station:WAVCIS:CSI15:1,2012-06-05T21:00:00Z,28.8332,-90.8320,10.0,6.023,163.0,,'11111222,11111222,99999999' 
WAVCIS,ioos:station:WAVCIS:CSI15:1,2012-06-05T22:00:00Z,28.8332,-90.8320,10.0,5.404,182.0,,'11111222,11111222,99999999' 
WAVCIS,ioos:station:WAVCIS:CSI15:1,2012-06-05T23:00:00Z,28.8332,-90.8320,10.0,6.48,188.0,,'11111222,11111222,99999999' 
WAVCIS,ioos:station:WAVCIS:CSI15:1,2012-06-06T00:00:00Z,28.8332,-90.8320,10.0,6.213,185.0,,'11111222,11111222,99999999' 
WAVCIS,ioos:station:WAVCIS:CSI15:1,2012-06-06T01:00:00Z,28.8332,-90.8320,10.0,6.51,188.0,,'11111222,11111222,99999999' 
WAVCIS,ioos:station:WAVCIS:CSI15:1,2012-06-06T02:00:00Z,28.8332,-90.8320,10.0,5.215,186.0,,'11111222,11111222,99999999' 
WAVCIS,ioos:station:WAVCIS:CSI15:1,2012-06-06T03:00:00Z,28.8332,-90.8320,10.0,4.899,194.0,,'11111222,11111222,99999999' 
WAVCIS,ioos:station:WAVCIS:CSI15:1,2012-06-06T04:00:00Z,28.8332,-90.8320,10.0,4.611,198.0,,'11111222,11111222,99999999' 
WAVCIS,ioos:station:WAVCIS:CSI15:1,2012-06-06T05:00:00Z,28.8332,-90.8320,10.0,4.734,199.0,,'11111222,11111222,99999999' 
WAVCIS,ioos:station:WAVCIS:CSI15:1,2012-06-06T06:00:00Z,28.8332,-90.8320,10.0,4.371,213.0,,'11111222,11111222,99999999' 
WAVCIS,ioos:station:WAVCIS:CSI15:1,2012-06-06T07:00:00Z,28.8332,-90.8320,10.0,3.645,218.0,,'11111222,11111222,99999999' 
WAVCIS,ioos:station:WAVCIS:CSI15:1,2012-06-06T08:00:00Z,28.8332,-90.8320,10.0,2.808,228.0,,'11111222,11111222,99999999' 
WAVCIS,ioos:station:WAVCIS:CSI15:1,2012-06-06T09:00:00Z,28.8332,-90.8320,10.0,2.999,223.0,,'11111222,11111222,99999999' 
WAVCIS,ioos:station:WAVCIS:CSI15:1,2012-06-06T10:00:00Z,28.8332,-90.8320,10.0,2.074,204.0,,'11111222,11111222,99999999' 
WAVCIS,ioos:station:WAVCIS:CSI15:1,2012-06-06T11:00:00Z,28.8332,-90.8320,10.0,2.739,218.0,,'11111222,11111222,99999999' 
WAVCIS,ioos:station:WAVCIS:CSI15:1,2012-06-06T12:00:00Z,28.8332,-90.8320,10.0,2.387,271.0,,'11111222,11111222,99999999' 
WAVCIS,ioos:station:WAVCIS:CSI15:1,2012-06-06T13:00:00Z,28.8332,-90.8320,10.0,2.099,282.0,,'11111222,11111222,99999999' 
WAVCIS,ioos:station:WAVCIS:CSI15:1,2012-06-06T14:00:00Z,28.8332,-90.8320,10.0,2.222,212.0,,'11111222,11111222,99999999' 
WAVCIS,ioos:station:WAVCIS:CSI15:1,2012-06-06T15:00:00Z,28.8332,-90.8320,10.0,1.024,236.0,,'11111222,11111222,99999999' 
WAVCIS,ioos:station:WAVCIS:CSI15:1,2012-06-06T16:00:00Z,28.8332,-90.8320,10.0,1.893,255.0,,'11111222,11111222,99999999' 
WAVCIS,ioos:station:WAVCIS:CSI15:1,2012-06-06T17:00:00Z,28.8332,-90.8320,10.0,1.274,227.0,,'11111222,11111222,99999999' 
WAVCIS,ioos:station:WAVCIS:CSI15:1,2012-06-06T18:00:00Z,28.8332,-90.8320,10.0,1.451,274.0,,'11111222,11111222,99999999' 
WAVCIS,ioos:station:WAVCIS:CSI15:1,2012-06-06T19:00:00Z,28.8332,-90.8320,10.0,1.442,205.0,,'11111222,11111222,99999999' 
WAVCIS,ioos:station:WAVCIS:CSI15:1,2012-06-06T20:00:00Z,28.8332,-90.8320,10.0,2.741,197.0,,'11111222,11111222,99999999' 
WAVCIS,ioos:station:WAVCIS:CSI15:1,2012-06-06T21:00:00Z,28.8332,-90.8320,10.0,2.288,188.0,,'11111222,11111222,99999999' 
WAVCIS,ioos:station:WAVCIS:CSI15:1,2012-06-06T22:00:00Z,28.8332,-90.8320,10.0,4.546,157.0,,'11111222,11111222,99999999' 
WAVCIS,ioos:station:WAVCIS:CSI15:1,2012-06-06T23:00:00Z,28.8332,-90.8320,10.0,3.75,132.0,,'11111222,11111222,99999999' 
WAVCIS,ioos:station:WAVCIS:CSI15:1,2012-06-07T00:00:00Z,28.8332,-90.8320,10.0,1.363,109.0,,'11111222,11111222,99999999' 
WAVCIS,ioos:station:WAVCIS:CSI15:1,2012-06-07T01:00:00Z,28.8332,-90.8320,10.0,3.743,357.0,,'11111222,11111222,99999999' 
WAVCIS,ioos:station:WAVCIS:CSI15:1,2012-06-07T02:00:00Z,28.8332,-90.8320,10.0,2.192,15.0,,'11111222,11111222,99999999' 
WAVCIS,ioos:station:WAVCIS:CSI15:1,2012-06-07T03:00:00Z,28.8332,-90.8320,10.0,1.746,299.0,,'11111222,11111222,99999999' 
WAVCIS,ioos:station:WAVCIS:CSI15:1,2012-06-07T04:00:00Z,28.8332,-90.8320,10.0,5.236,333.0,,'11111222,11111222,99999999' 
WAVCIS,ioos:station:WAVCIS:CSI15:1,2012-06-07T05:00:00Z,28.8332,-90.8320,10.0,4.205,11.0,,'11111222,11111222,99999999' 
WAVCIS,ioos:station:WAVCIS:CSI15:1,2012-06-07T06:00:00Z,28.8332,-90.8320,10.0,2.404,69.0,,'11111222,11111222,99999999' 
WAVCIS,ioos:station:WAVCIS:CSI15:1,2012-06-07T07:00:00Z,28.8332,-90.8320,10.0,2.789,87.0,,'11111222,11111222,99999999' 
WAVCIS,ioos:station:WAVCIS:CSI15:1,2012-06-07T08:00:00Z,28.8332,-90.8320,10.0,1.06,76.0,,'11111222,11111222,99999999' 
WAVCIS,ioos:station:WAVCIS:CSI15:1,2012-06-07T09:00:00Z,28.8332,-90.8320,10.0,1.806,55.0,,'11111222,11111222,99999999' 
WAVCIS,ioos:station:WAVCIS:CSI15:1,2012-06-07T10:00:00Z,28.8332,-90.8320,10.0,1.639,63.0,,'11111222,11111222,99999999' 
WAVCIS,ioos:station:WAVCIS:CSI15:1,2012-06-07T11:00:00Z,28.8332,-90.8320,10.0,1.943,28.0,,'11111222,11111222,99999999' 
WAVCIS,ioos:station:WAVCIS:CSI15:1,2012-06-07T12:00:00Z,28.8332,-90.8320,10.0,1.815,129.0,,'11111222,11111222,99999999' 
WAVCIS,ioos:station:WAVCIS:CSI15:1,2012-06-07T13:00:00Z,28.8332,-90.8320,10.0,3.044,83.0,,'11111222,11111222,99999999' 
WAVCIS,ioos:station:WAVCIS:CSI15:1,2012-06-07T14:00:00Z,28.8332,-90.8320,10.0,2.742,104.0,,'11111222,11111222,99999999' 
WAVCIS,ioos:station:WAVCIS:CSI15:1,2012-06-07T15:00:00Z,28.8332,-90.8320,10.0,1.963,66.0,,'11111222,11111222,99999999' 
WAVCIS,ioos:station:WAVCIS:CSI15:1,2012-06-07T16:00:00Z,28.8332,-90.8320,10.0,2.001,78.0,,'11111222,11111222,99999999' 
WAVCIS,ioos:station:WAVCIS:CSI15:1,2012-06-07T17:00:00Z,28.8332,-90.8320,10.0,2.211,85.0,,'11111222,11111222,99999999' 
WAVCIS,ioos:station:WAVCIS:CSI15:1,2012-06-07T18:00:00Z,28.8332,-90.8320,10.0,2.47,98.0,,'11111222,11111222,99999999' 
WAVCIS,ioos:station:WAVCIS:CSI15:1,2012-06-07T19:00:00Z,28.8332,-90.8320,10.0,2.75,114.0,,'11111222,11111222,99999999' 
WAVCIS,ioos:station:WAVCIS:CSI15:1,2012-06-07T20:00:00Z,28.8332,-90.8320,10.0,4.92,167.0,,'11111222,11111222,99999999' 
WAVCIS,ioos:station:WAVCIS:CSI15:1,2012-06-07T21:00:00Z,28.8332,-90.8320,10.0,9.41,194.0,,'11111222,11111222,99999999' 
WAVCIS,ioos:station:WAVCIS:CSI15:1,2012-06-07T22:00:00Z,28.8332,-90.8320,10.0,5.219,214.0,,'11111222,11111222,99999999' 
WAVCIS,ioos:station:WAVCIS:CSI15:1,2012-06-07T23:00:00Z,28.8332,-90.8320,10.0,2.57,218.0,,'11111222,11111222,99999999' 
WAVCIS,ioos:station:WAVCIS:CSI15:1,2012-06-08T00:00:00Z,28.8332,-90.8320,10.0,2.37,294.0,,'11111222,11111222,99999999' 
WAVCIS,ioos:station:WAVCIS:CSI15:1,2012-06-08T01:00:00Z,28.8332,-90.8320,10.0,3.345,332.0,,'11111222,11111222,99999999' 
WAVCIS,ioos:station:WAVCIS:CSI15:1,2012-06-08T02:00:00Z,28.8332,-90.8320,10.0,7.7,9.0,,'11111222,11111222,99999999' 
WAVCIS,ioos:station:WAVCIS:CSI15:1,2012-06-08T03:00:00Z,28.8332,-90.8320,10.0,4.017,32.0,,'11111222,11111222,99999999' 
WAVCIS,ioos:station:WAVCIS:CSI15:1,2012-06-08T04:00:00Z,28.8332,-90.8320,10.0,5.28,23.0,,'11111222,11111222,99999999' 
WAVCIS,ioos:station:WAVCIS:CSI15:1,2012-06-08T05:00:00Z,28.8332,-90.8320,10.0,5.528,56.0,,'11111222,11111222,99999999' 
WAVCIS,ioos:station:WAVCIS:CSI15:1,2012-06-08T06:00:00Z,28.8332,-90.8320,10.0,4.861,122.0,,'11111222,11111222,99999999' 
WAVCIS,ioos:station:WAVCIS:CSI15:1,2012-06-08T07:00:00Z,28.8332,-90.8320,10.0,3.372,109.0,,'11111222,11111222,99999999' 
WAVCIS,ioos:station:WAVCIS:CSI15:1,2012-06-08T08:00:00Z,28.8332,-90.8320,10.0,2.915,151.0,,'11111222,11111222,99999999' 
WAVCIS,ioos:station:WAVCIS:CSI15:1,2012-06-08T09:00:00Z,28.8332,-90.8320,10.0,2.019,134.0,,'11111222,11111222,99999999' 
WAVCIS,ioos:station:WAVCIS:CSI15:1,2012-06-08T10:00:00Z,28.8332,-90.8320,10.0,0.762,173.0,,'11111222,11111222,99999999' 
WAVCIS,ioos:station:WAVCIS:CSI15:1,2012-06-08T11:00:00Z,28.8332,-90.8320,10.0,3.265,12.0,,'11111222,11111222,99999999' 
WAVCIS,ioos:station:WAVCIS:CSI15:1,2012-06-08T12:00:00Z,28.8332,-90.8320,10.0,5.638,22.0,,'11111222,11111222,99999999' 
WAVCIS,ioos:station:WAVCIS:CSI15:1,2012-06-08T13:00:00Z,28.8332,-90.8320,10.0,5.397,324.0,,'11111222,11111222,99999999' 
WAVCIS,ioos:station:WAVCIS:CSI15:1,2012-06-08T14:00:00Z,28.8332,-90.8320,10.0,7.6,17.0,,'11111222,11111222,99999999' 
WAVCIS,ioos:station:WAVCIS:CSI15:1,2012-06-08T15:00:00Z,28.8332,-90.8320,10.0,4.058,6.0,,'11111222,11111222,99999999' 
WAVCIS,ioos:station:WAVCIS:CSI15:1,2012-06-08T16:00:00Z,28.8332,-90.8320,10.0,4.757,43.0,,'11111222,11111222,99999999' 
WAVCIS,ioos:station:WAVCIS:CSI15:1,2012-06-08T17:00:00Z,28.8332,-90.8320,10.0,4.947,73.0,,'11111222,11111222,99999999' 
WAVCIS,ioos:station:WAVCIS:CSI15:1,2012-06-08T18:00:00Z,28.8332,-90.8320,10.0,7.19,97.0,,'11111222,11111222,99999999' 
WAVCIS,ioos:station:WAVCIS:CSI15:1,2012-06-08T19:00:00Z,28.8332,-90.8320,10.0,5.009,78.0,,'11111222,11111222,99999999' 
WAVCIS,ioos:station:WAVCIS:CSI15:1,2012-06-08T20:00:00Z,28.8332,-90.8320,10.0,4.312,81.0,,'11111222,11111222,99999999' 
WAVCIS,ioos:station:WAVCIS:CSI15:1,2012-06-08T21:00:00Z,28.8332,-90.8320,10.0,3.876,74.0,,'11111222,11111222,99999999' 
WAVCIS,ioos:station:WAVCIS:CSI15:1,2012-06-08T22:00:00Z,28.8332,-90.8320,10.0,4.631,80.0,,'11111222,11111222,99999999' 
WAVCIS,ioos:station:WAVCIS:CSI15:1,2012-06-08T23:00:00Z,28.8332,-90.8320,10.0,5.074,99.0,,'11111222,11111222,99999999' 
WAVCIS,ioos:station:WAVCIS:CSI15:1,2012-06-09T00:00:00Z,28.8332,-90.8320,10.0,3.884,78.0,,'11111222,11111222,99999999' 
WAVCIS,ioos:station:WAVCIS:CSI15:1,2012-06-09T01:00:00Z,28.8332,-90.8320,10.0,5.269,99.0,,'11111222,11111222,99999999' 
WAVCIS,ioos:station:WAVCIS:CSI15:1,2012-06-09T02:00:00Z,28.8332,-90.8320,10.0,2.527,155.0,,'11111222,11111222,99999999' 
WAVCIS,ioos:station:WAVCIS:CSI15:1,2012-06-09T03:00:00Z,28.8332,-90.8320,10.0,4.624,103.0,,'11111222,11111222,99999999' 
WAVCIS,ioos:station:WAVCIS:CSI15:1,2012-06-09T04:00:00Z,28.8332,-90.8320,10.0,5.368,108.0,,'11111222,11111222,99999999' 
WAVCIS,ioos:station:WAVCIS:CSI15:1,2012-06-09T05:00:00Z,28.8332,-90.8320,10.0,4.793,107.0,,'11111222,11111222,99999999' 